Theta_e
330 327 329 323 321 320 319 323 298 308 303 295 297 299 299 306 303 301 300 302 301 308 309 310 309 312 309 307 303 305 307 303 309 300 304 319 329 329 331 327 328 327 330 328 328 327 327 328 328 329 331 334 334 336 336 337 338 339 339 340 341 342 342 343 343 344 344 345 346 346 346 347 347 348 347 347 348 348 347 346 347 347 347 346 344 343 342 342 343 343 342 342 342 344 344 343 345
322 324 325 324 319 319 315 318 303 297 299 295 298 303 301 304 305 300 302 302 304 305 310 307 307 309 308 307 307 310 307 310 311 312 327 331 330 328 328 329 328 328 329 328 328 328 329 326 329 330 330 333 334 335 336 337 338 339 340 341 342 343 343 343 344 344 345 345 345 346 346 347 347 347 347 346 346 347 347 348 348 347 347 346 345 344 343 340 342 342 344 345 346 347 346 345 346
321 323 323 323 317 315 312 313 295 296 295 292 298 299 307 303 299 302 302 305 306 307 308 307 307 307 310 310 307 307 307 323 322 322 325 329 326 325 329 331 330 330 330 329 328 328 330 328 330 330 330 331 333 335 336 337 338 339 340 342 343 343 343 343 344 344 345 345 345 346 346 346 347 347 347 347 347 347 348 348 347 347 346 346 346 345 343 342 342 344 347 347 347 348 348 346 345
327 326 324 319 311 316 305 306 300 297 295 294 295 303 302 304 301 304 309 313 307 307 309 306 303 309 306 302 305 311 308 316 325 323 323 326 322 327 328 329 327 327 327 329 329 328 328 328 330 329 329 330 332 334 335 336 337 338 340 342 343 343 343 343 344 344 344 345 346 346 346 346 346 346 346 346 346 347 347 347 347 347 347 347 347 346 344 343 344 344 346 348 347 346 346 344 343
326 328 323 314 312 308 310 305 299 298 293 296 294 301 302 305 305 307 310 309 308 307 307 307 303 309 312 310 311 304 306 320 321 326 326 328 331 328 329 331 328 326 326 327 327 327 328 328 328 328 328 329 331 333 335 336 337 339 340 341 342 342 343 343 344 344 345 345 345 345 346 346 346 346 346 346 347 347 347 347 347 347 347 347 347 346 345 344 345 344 346 345 346 344 343 342 342
330 323 321 314 308 317 306 297 295 295 299 302 299 302 301 303 302 305 307 307 306 307 309 307 305 307 307 308 311 309 321 312 327 327 331 329 331 332 330 330 327 326 327 327 328 327 328 329 328 328 328 329 331 332 334 335 336 337 338 339 341 342 343 343 344 344 344 345 345 345 345 346 346 346 345 347 347 345 343 343 346 346 346 347 347 347 345 345 345 344 346 345 343 342 341 341 341
320 317 318 315 312 313 300 296 295 297 300 304 302 301 302 303 305 307 306 307 310 308 313 311 311 310 306 310 313 320 322 322 323 331 334 330 329 332 330 328 328 327 328 327 327 327 328 329 328 328 328 329 331 333 334 336 338 338 340 341 341 342 343 343 343 343 344 344 344 345 345 345 346 345 344 345 345 343 342 343 345 345 345 345 346 347 347 345 344 345 343 343 342 341 341 340 339
327 311 320 308 305 304 298 298 299 300 303 305 306 303 304 308 310 305 307 308 308 304 313 315 314 309 306 312 306 327 325 328 331 331 330 328 330 330 330 328 326 326 328 328 328 327 325 328 329 328 328 329 330 332 334 335 336 337 339 340 341 341 342 342 342 343 343 343 344 344 344 344 344 344 345 344 344 342 341 342 345 344 344 345 347 347 346 345 345 344 343 342 341 341 340 339 338
320 313 323 308 299 305 299 298 299 304 303 306 305 307 308 308 306 309 307 308 311 313 310 313 316 306 309 307 307 319 324 330 330 328 330 330 328 330 329 327 325 327 330 328 327 328 326 327 327 327 327 328 329 331 332 334 334 335 337 338 340 341 342 342 342 343 343 343 344 344 344 344 344 344 344 343 343 342 342 343 343 343 344 344 346 346 346 345 344 343 343 342 340 339 340 338 337
316 315 305 307 305 296 297 297 297 303 306 306 305 304 304 304 303 304 310 310 311 313 314 318 316 307 309 308 312 317 324 331 328 327 329 330 330 329 329 328 329 329 330 329 328 328 327 323 325 324 325 326 327 329 330 331 333 334 335 336 337 339 341 342 342 342 343 343 343 343 343 343 342 342 343 342 342 343 343 343 342 342 343 343 345 345 344 344 343 343 342 340 340 340 339 338 336
308 317 319 301 297 294 295 296 298 301 302 304 304 306 306 305 305 304 307 310 313 311 314 320 314 314 313 313 311 331 330 328 330 328 329 330 328 328 325 328 328 329 327 330 330 329 325 323 321 323 323 324 325 326 328 330 331 333 333 335 335 337 338 339 340 341 342 342 342 343 343 343 343 343 343 343 342 342 342 342 341 341 342 343 343 343 343 343 343 342 341 341 340 338 338 336 335
305 307 309 299 297 296 297 296 299 301 302 303 302 306 306 306 305 304 311 306 312 312 311 316 312 318 312 309 310 326 328 330 329 329 328 328 324 327 327 324 328 328 328 328 330 328 328 327 321 321 323 323 324 325 327 328 331 331 332 333 333 334 335 336 337 338 339 340 340 341 342 342 342 342 342 341 341 341 342 342 341 340 340 342 341 342 342 343 342 341 341 340 339 338 336 335 333
306 308 302 300 299 299 298 297 299 301 299 301 303 305 306 306 304 306 310 311 311 309 313 320 322 319 308 310 314 326 328 328 328 327 327 323 322 322 326 323 327 327 327 326 326 326 328 326 327 323 322 322 322 322 323 325 328 330 330 331 331 332 332 333 334 335 336 337 337 338 339 339 340 341 341 341 340 340 340 340 340 339 339 341 342 339 341 341 342 341 340 340 338 337 335 334 333
307 310 306 298 303 299 297 297 298 298 298 303 305 308 310 308 305 305 308 305 306 307 319 324 320 317 310 311 312 318 329 329 326 326 323 324 324 322 324 322 324 324 326 326 324 325 325 325 326 326 323 321 321 320 320 321 324 328 329 329 330 330 330 330 331 332 333 334 334 334 336 337 338 338 338 338 338 338 337 337 335 337 339 340 340 340 341 341 341 340 339 339 338 336 335 334 333
306 312 305 302 299 299 299 295 298 299 298 302 304 306 305 307 307 306 306 305 305 313 317 318 317 314 304 310 307 314 324 327 324 324 323 324 324 322 323 323 323 323 323 324 325 324 324 324 325 325 326 323 325 325 324 322 321 324 326 327 327 328 329 329 328 328 328 329 330 330 332 333 333 334 334 335 335 334 334 334 332 335 338 339 337 336 339 340 340 339 339 338 337 336 335 333 332
311 307 304 298 296 296 298 298 300 301 300 303 305 307 305 307 308 305 306 309 307 311 316 308 316 310 314 312 314 317 327 325 324 323 323 324 324 323 322 322 321 321 321 322 323 324 323 323 324 324 325 325 325 325 325 325 322 321 322 323 324 325 326 325 324 323 322 324 325 327 328 328 330 331 332 333 331 331 331 331 330 334 337 338 338 338 338 338 338 338 338 338 337 335 334 331 330
315 312 298 298 294 297 299 299 300 296 301 305 305 305 303 304 308 309 312 312 307 308 310 310 311 317 312 315 318 322 330 326 323 323 325 323 322 321 321 319 319 320 322 322 322 322 323 323 323 323 324 325 325 325 324 326 327 320 320 320 321 322 323 323 321 320 318 319 320 323 325 327 330 332 334 332 330 330 328 326 327 331 336 337 337 338 338 338 338 338 337 336 334 333 330 327 327
310 301 298 295 297 296 301 300 303 304 301 302 304 306 304 302 305 307 309 307 306 306 309 308 309 312 316 317 322 323 330 326 324 324 322 320 317 313 312 314 315 316 319 320 322 323 322 322 322 323 323 325 325 326 326 326 325 321 325 326 324 323 321 321 319 320 320 327 324 325 329 330 330 332 333 327 333 330 328 325 325 329 333 335 336 335 336 337 336 336 336 334 331 329 327 325 324
303 301 299 295 299 300 304 306 307 305 303 307 305 305 304 303 305 306 303 303 304 304 305 307 306 308 312 321 322 322 325 325 325 324 322 320 317 315 315 315 314 315 315 320 321 323 322 322 322 322 322 323 324 324 326 325 325 325 325 325 326 323 324 321 325 326 326 328 326 326 326 328 329 331 332 332 332 327 330 324 323 327 329 332 333 333 333 333 335 334 334 333 329 327 324 323 321
305 301 297 298 303 304 305 308 310 313 312 305 305 307 305 305 306 307 303 302 306 302 301 302 304 306 307 310 314 316 316 315 317 320 319 318 319 318 316 316 314 313 315 317 317 325 323 322 322 322 322 323 323 323 324 324 323 323 322 322 324 324 326 327 326 326 327 325 326 326 326 326 329 331 324 321 323 330 330 322 321 322 324 327 327 330 331 328 331 332 331 330 327 324 323 321 319
305 301 297 300 303 301 303 310 312 312 314 309 307 306 303 304 305 305 304 301 301 302 305 304 303 303 305 307 310 312 312 314 315 317 317 317 318 320 318 316 313 314 314 316 317 322 323 323 322 322 322 323 323 323 322 322 322 322 321 322 323 323 324 324 325 326 325 323 324 324 326 326 330 328 327 325 325 328 330 328 326 327 328 329 323 330 330 329 330 329 329 326 325 323 321 319 318
304 301 304 303 304 301 305 305 312 309 312 311 308 304 303 307 305 304 304 300 299 302 305 307 306 306 305 305 308 310 310 312 312 312 313 314 316 318 320 317 318 315 316 313 314 316 319 321 323 321 322 322 323 322 322 322 322 320 320 321 322 324 324 323 321 320 321 323 321 322 324 327 328 326 325 323 325 327 327 328 327 327 328 328 327 330 329 328 329 328 327 326 324 323 321 319 318
298 302 303 304 304 301 304 304 310 311 311 308 305 305 305 303 302 304 303 302 303 307 307 307 308 308 307 307 307 306 308 309 310 310 311 312 314 315 317 318 316 312 313 312 315 315 314 316 320 321 320 321 322 322 322 321 321 321 320 320 320 320 321 320 320 320 322 322 321 320 322 324 324 324 323 323 325 327 325 326 327 327 327 327 327 328 327 327 327 327 325 324 323 321 320 318 317
302 298 302 303 305 302 304 304 305 307 308 306 307 307 302 302 299 305 303 305 306 307 307 307 307 307 307 306 305 305 306 307 308 310 311 312 313 314 316 316 313 311 310 310 312 313 314 315 316 318 319 319 319 321 321 320 320 320 321 318 321 319 319 319 320 320 322 320 320 319 320 322 323 324 323 323 326 327 325 325 326 326 327 326 325 327 326 325 324 324 323 322 321 320 319 317 316
300 300 302 302 304 304 302 301 303 305 306 307 309 303 302 303 302 303 301 303 305 305 306 305 306 306 305 305 305 305 306 306 307 309 313 307 311 316 318 315 314 313 311 311 311 312 313 314 315 315 316 318 319 320 319 319 319 319 319 318 319 319 319 318 320 320 321 319 321 321 318 320 323 324 324 326 327 326 325 325 323 324 324 323 323 322 324 324 323 323 322 320 320 319 318 317 315
301 300 303 304 303 303 302 304 304 303 304 307 304 301 303 304 305 300 301 303 305 305 304 304 304 304 304 304 305 305 305 305 305 309 310 309 312 309 311 308 311 310 311 310 311 311 312 312 313 314 314 315 317 319 319 318 318 317 317 317 319 317 317 319 320 319 320 319 318 321 320 319 321 321 322 327 326 323 324 325 324 321 322 321 321 321 321 321 319 317 317 320 319 318 317 316 314
303 302 301 301 302 303 304 302 303 303 302 302 300 300 301 303 301 294 301 303 308 308 304 304 303 303 303 304 305 305 305 304 304 305 305 310 310 309 307 307 306 306 306 306 308 311 312 312 313 313 314 315 316 317 318 318 318 317 316 317 316 318 317 318 317 318 320 320 318 321 321 320 320 321 318 320 325 322 323 325 325 324 322 320 321 319 318 321 319 318 319 319 319 317 316 314 313
302 301 301 300 301 301 301 302 301 301 299 301 300 298 300 300 299 296 300 303 305 306 307 304 303 303 303 304 304 305 304 304 304 305 303 306 305 304 305 304 304 305 305 306 307 309 308 309 310 313 313 313 314 314 315 317 317 316 316 315 315 316 318 316 316 317 317 319 320 320 321 319 319 318 317 317 319 321 321 323 324 323 322 320 319 319 320 321 320 319 318 317 316 317 315 313 312
301 300 296 298 299 298 300 299 300 300 298 302 302 297 295 296 295 299 301 302 303 304 304 304 304 304 304 304 304 303 303 304 305 304 305 304 305 304 303 305 304 304 306 307 307 308 307 309 310 309 309 312 313 313 314 316 317 317 316 314 315 318 318 317 316 317 318 319 320 318 319 321 319 317 316 316 315 317 315 316 318 318 319 320 320 319 318 318 315 313 314 314 313 312 311 311 311
301 300 296 295 295 294 298 300 300 299 300 302 299 287 291 295 298 300 302 302 303 302 302 302 302 302 302 302 301 301 304 303 303 304 304 304 304 304 304 304 306 306 306 306 308 308 309 310 311 313 310 310 310 311 313 314 316 315 315 314 314 315 315 315 316 318 318 318 320 318 319 318 318 317 316 315 314 315 313 312 313 313 310 312 313 313 315 313 312 312 312 311 309 309 308 309 308
295 298 297 291 289 289 298 299 300 297 300 299 299 287 290 295 298 300 301 303 302 300 300 301 301 302 302 301 301 301 303 304 302 304 304 305 305 305 305 305 307 308 307 307 308 307 307 308 309 309 309 311 310 310 311 312 314 315 313 313 313 313 315 316 317 318 319 318 319 318 319 319 318 318 317 317 313 312 312 312 312 312 310 308 308 308 309 307 308 311 309 310 307 307 306 306 307
296 292 289 293 289 291 296 299 298 295 298 300 297 288 290 294 297 300 304 303 302 300 300 300 301 302 302 301 301 301 301 303 303 304 304 305 306 305 306 305 307 307 307 307 308 309 307 306 308 307 310 311 310 310 312 312 313 313 314 311 311 311 311 314 313 316 318 317 318 318 319 319 318 318 318 317 315 314 313 313 313 313 310 309 308 308 307 307 307 308 307 309 306 304 304 302 303
293 290 288 289 291 292 293 298 299 299 298 298 296 289 293 294 298 300 303 302 301 300 300 300 301 302 302 301 301 300 302 302 303 303 304 305 306 305 306 306 307 307 308 308 308 308 308 307 307 307 309 309 310 310 311 311 312 312 313 312 311 310 309 309 312 315 316 316 316 317 318 318 318 318 317 317 317 315 314 313 311 312 309 307 307 307 308 308 307 306 305 306 306 304 303 303 302
289 292 288 291 290 291 289 295 299 299 297 293 296 292 292 294 297 298 299 299 299 298 298 300 300 300 301 300 300 300 300 301 301 302 303 305 306 306 307 306 307 306 307 307 308 308 308 307 308 308 309 309 308 308 309 310 311 312 311 312 309 308 309 308 310 313 313 314 315 313 313 314 314 317 315 314 316 316 314 311 309 309 307 304 303 304 306 306 308 308 306 305 305 305 303 302 301
287 288 288 290 292 293 291 291 295 297 297 295 294 293 293 295 297 298 299 300 300 299 299 300 300 301 300 300 300 300 299 301 302 302 304 306 306 306 306 307 306 307 306 307 308 308 308 308 308 308 308 308 308 308 310 310 310 310 311 310 308 307 308 308 309 310 311 312 311 309 310 311 310 310 312 313 313 313 312 311 309 307 306 305 305 304 305 305 305 306 306 305 305 305 305 304 303
291 292 292 292 289 290 292 296 298 296 293 292 293 291 293 295 296 298 299 299 298 299 300 300 300 300 300 300 300 299 299 301 303 304 305 306 306 306 305 306 305 305 305 306 306 307 307 307 308 308 308 308 307 308 308 308 308 307 306 306 305 305 307 306 307 307 307 308 307 307 307 308 307 307 307 307 308 309 309 308 308 305 303 305 304 304 303 303 304 304 304 303 303 302 301 304 302
293 293 292 291 291 291 294 295 298 297 295 293 293 293 293 294 295 296 298 298 298 298 298 298 299 299 299 299 299 299 299 302 304 305 305 306 306 306 306 304 303 304 304 304 304 305 307 307 307 306 308 308 307 306 306 306 304 304 304 304 302 304 301 302 305 306 306 305 304 304 304 304 304 304 302 303 303 303 303 302 303 304 303 302 303 304 303 302 301 301 300 300 300 298 297 297 298
293 292 291 291 292 289 293 294 296 301 293 291 293 293 293 294 296 297 298 297 296 297 297 298 299 299 299 299 299 299 301 304 304 304 305 305 304 305 304 302 301 301 302 302 302 303 305 306 306 307 307 307 307 307 305 305 304 303 302 301 302 301 300 301 302 303 303 303 302 302 302 302 301 301 300 301 301 301 300 299 298 298 299 300 299 299 300 298 298 298 297 296 297 296 294 295 295
294 292 291 289 290 292 294 295 296 296 295 291 294 292 292 294 295 297 296 296 297 298 299 299 298 298 299 299 299 299 300 301 303 303 303 304 305 304 302 301 301 301 301 300 300 301 303 304 304 305 305 305 306 306 305 303 302 303 302 300 300 299 300 300 299 299 300 300 300 299 299 299 299 298 299 299 299 299 299 298 296 296 297 296 296 296 295 295 295 295 294 292 290 290 289 290 291
291 291 289 287 292 289 285 292 295 296 293 293 292 290 292 294 296 296 297 297 298 299 300 300 300 298 298 298 299 298 298 299 299 300 301 301 301 301 301 299 299 300 298 298 298 299 302 301 302 303 304 304 305 305 304 303 302 301 301 299 298 297 295 296 298 298 298 299 297 297 297 297 297 296 297 297 296 296 296 295 294 294 295 295 295 294 293 292 291 291 293 292 290 289 288 287 290
292 292 291 290 290 291 290 290 294 297 296 294 292 290 290 293 292 294 296 298 297 298 299 299 300 301 300 300 300 299 298 298 297 299 299 299 299 299 299 298 298 297 297 296 297 299 300 300 301 301 303 303 304 304 304 303 302 300 301 301 300 299 300 299 297 294 295 294 292 293 292 293 294 293 293 294 293 292 293 292 292 292 291 292 291 290 289 289 290 290 291 290 289 289 287 286 287
289 293 292 292 292 291 291 292 291 288 287 293 292 283 283 290 292 293 296 296 296 297 297 297 298 299 298 297 297 298 299 298 298 299 299 299 299 299 298 297 296 295 296 296 297 297 297 298 299 300 301 301 302 302 302 301 300 300 300 298 294 293 293 294 293 293 291 290 290 292 292 292 292 291 291 292 292 291 290 290 290 289 289 289 290 289 289 288 288 288 289 289 288 288 287 286 285
286 289 295 293 292 291 291 290 289 283 281 290 295 282 280 288 289 291 292 293 294 296 296 297 299 299 298 298 297 297 297 298 299 299 299 298 298 297 296 295 294 294 295 296 296 296 296 297 298 299 299 299 301 300 301 302 301 301 301 299 299 298 295 295 294 292 289 289 290 290 288 289 290 289 289 289 289 290 289 289 289 289 289 289 289 289 288 288 288 288 288 288 288 288 288 287 287
285 296 295 295 294 291 291 291 289 286 291 292 293 289 282 281 287 292 293 292 292 293 295 296 298 298 297 298 297 297 298 300 300 298 298 297 296 295 294 294 293 294 294 294 294 295 295 295 295 295 296 296 297 297 298 300 300 300 299 299 298 296 295 292 292 290 290 289 289 288 288 287 288 288 288 288 288 288 288 287 287 288 287 287 287 287 287 287 287 287 287 286 287 288 287 288 287
290 295 298 294 294 293 293 289 286 286 285 282 285 291 282 281 287 292 293 290 291 291 293 295 296 296 296 297 297 297 299 300 300 298 296 295 294 293 294 293 293 293 292 292 292 292 293 293 293 293 293 294 294 295 295 296 298 299 298 297 295 296 293 291 291 290 289 288 287 287 287 287 287 287 287 287 288 287 287 287 287 287 287 287 287 287 287 287 287 287 286 286 286 287 287 287 287
294 297 297 295 294 293 293 286 285 285 282 279 283 288 281 281 287 288 290 289 290 291 293 295 296 296 296 297 297 298 297 297 297 296 295 294 294 293 294 293 292 291 291 292 291 292 291 291 291 290 290 291 292 293 293 293 295 296 295 295 295 293 292 291 291 289 289 288 287 287 286 286 286 286 287 287 287 287 287 287 287 287 286 286 286 286 286 286 286 286 286 286 286 286 287 286 286
296 297 293 292 291 288 287 286 284 283 278 280 285 288 286 279 284 286 285 288 291 292 293 294 295 295 296 297 298 298 298 296 295 294 294 293 293 293 292 290 289 289 289 289 289 289 289 289 288 287 287 288 289 289 289 288 289 289 289 290 290 291 291 291 290 290 289 288 287 287 287 286 286 286 285 286 286 287 287 287 286 286 286 286 286 286 286 286 285 285 285 285 285 285 285 285 285
294 290 287 286 284 286 284 283 285 279 276 282 286 287 288 278 281 287 292 293 293 293 293 293 294 295 295 296 298 298 296 295 295 294 293 293 292 290 289 288 287 287 287 287 287 287 287 287 286 285 285 285 286 286 286 285 285 285 285 285 285 285 287 289 287 286 286 286 288 287 286 285 284 284 283 283 284 285 285 285 286 286 286 287 286 286 286 286 286 286 286 285 285 285 285 285 285
290 288 286 281 279 282 277 280 277 277 276 282 287 288 284 282 286 290 291 293 294 295 296 295 294 294 295 296 296 296 295 295 294 293 292 290 288 287 286 286 285 284 284 284 285 285 285 285 284 283 282 283 283 284 283 283 282 281 281 282 282 283 284 283 282 282 283 282 282 282 281 281 281 281 282 282 282 282 283 283 283 284 285 285 283 284 285 286 286 286 286 286 285 285 285 285 285
287 285 283 280 275 275 273 278 281 280 284 287 286 289 282 286 290 293 293 294 295 295 295 295 295 294 296 296 295 295 294 293 292 290 288 287 286 285 284 284 283 283 282 282 283 283 283 283 281 281 280 280 280 281 280 280 280 279 279 279 280 281 281 281 280 280 280 280 280 280 279 279 279 279 279 279 280 281 281 283 284 285 285 285 285 285 285 285 285 285 285 285 285 285 285 285 285
286 289 286 282 281 277 273 276 274 277 280 283 288 282 280 280 282 293 295 295 295 294 295 294 296 296 296 296 294 293 292 290 289 287 286 285 284 284 283 282 282 281 281 281 281 281 281 280 280 279 279 279 279 279 279 278 278 278 277 278 278 278 278 279 279 279 279 278 279 278 278 278 278 278 279 279 280 279 280 281 282 283 283 284 284 285 285 285 285 285 285 285 285 286 285 286 285
287 289 289 284 281 285 278 281 280 280 281 280 280 280 283 284 290 293 294 294 295 294 294 294 296 296 295 294 292 291 290 289 287 285 284 283 283 282 281 281 281 280 280 280 280 280 279 279 278 278 278 278 278 277 277 277 277 277 276 276 276 277 277 277 277 278 277 277 277 277 277 277 277 278 278 278 279 279 279 280 281 281 282 282 283 284 284 284 285 284 285 285 285 286 285 285 285
286 287 282 284 291 287 282 283 284 284 282 278 283 281 284 291 290 291 292 293 293 292 293 293 293 294 293 291 291 290 289 287 286 284 283 282 281 281 280 280 279 279 279 279 278 278 278 278 277 277 277 277 277 277 276 276 276 276 275 275 275 275 275 275 275 275 276 276 276 276 276 276 276 277 277 278 278 279 279 280 280 280 281 281 282 283 283 283 283 284 284 284 284 285 284 284 284
288 281 285 291 293 289 284 277 281 279 275 277 283 281 281 282 279 289 288 288 290 290 291 292 293 292 291 290 289 288 286 285 284 283 281 281 280 279 279 279 278 278 278 278 278 277 277 277 276 276 276 275 276 276 275 275 275 275 274 274 274 274 274 274 275 275 275 275 275 275 276 276 275 276 276 276 277 277 278 279 278 279 279 280 280 281 281 283 283 283 283 284 284 284 284 284 284
289 287 292 285 279 279 283 281 274 274 274 276 280 281 281 282 282 284 285 285 288 289 290 290 290 291 290 289 288 287 286 285 283 281 280 279 279 278 278 278 278 278 277 277 277 277 277 276 276 276 275 275 275 275 275 275 274 274 274 273 273 273 273 273 274 274 275 274 274 274 274 275 275 275 274 275 275 275 276 276 277 277 278 278 279 279 279 279 280 281 282 282 283 283 283 283 284
291 292 288 289 284 283 281 281 281 280 275 275 275 280 279 287 284 286 288 289 290 289 287 289 290 290 290 289 288 286 284 283 281 280 279 279 278 278 277 277 277 277 276 276 276 276 275 275 275 275 275 275 274 274 274 273 274 273 273 273 273 273 273 273 273 273 273 273 273 273 273 273 273 274 273 274 274 274 274 275 275 276 276 276 277 277 278 278 279 278 279 279 279 280 282 282 282
284 285 283 285 285 286 283 284 282 279 276 276 276 275 280 286 290 289 290 291 291 290 290 290 289 288 287 287 286 284 283 281 280 279 278 278 277 277 277 276 276 277 277 277 276 275 275 275 274 274 273 273 273 274 273 273 273 273 272 272 272 272 272 273 272 273 272 272 272 272 272 273 273 272 272 272 272 273 273 273 274 274 274 274 275 275 276 276 277 277 278 278 278 278 278 279 280
286 285 283 285 284 281 278 277 285 283 280 276 276 275 281 288 293 293 292 291 291 291 290 289 288 286 285 284 283 282 281 279 279 278 277 276 276 276 276 277 277 277 276 275 276 275 274 274 274 274 273 273 272 273 273 272 272 272 271 270 271 271 271 272 272 271 271 271 271 271 272 272 272 272 272 271 272 272 272 272 272 272 273 273 273 274 274 275 275 275 276 277 277 276 276 277 277
Wind_Speed
9 10 6 5 5 5 6 2 3 2 2 7 5 6 1 1 2 3 2 1 1 5 6 3 3 2 1 3 9 7 6 7 2 3 1 2 4 4 3 4 3 3 2 3 3 5 4 6 5 1 1 3 3 3 5 5 5 6 6 5 5 6 6 6 6 6 7 7 7 8 9 10 11 12 12 12 11 10 9 10 12 13 13 12 12 14 12 10 10 9 8 7 6 10 16 15 14
9 9 8 4 4 4 1 2 2 3 5 5 4 3 1 2 1 2 3 5 5 4 0 1 2 1 4 6 4 4 9 7 5 3 3 3 5 3 4 3 3 3 3 1 1 2 7 7 9 6 3 3 3 4 6 6 6 6 6 7 7 7 7 7 7 7 7 8 8 9 9 11 11 12 12 12 13 11 11 12 13 13 12 11 11 13 12 6 12 10 14 17 20 20 20 19 18
8 8 7 4 5 3 3 2 3 3 4 4 2 2 2 2 5 4 6 7 5 5 4 4 2 6 4 5 8 7 1 1 0 4 4 9 6 2 3 3 2 3 3 2 1 2 2 8 9 7 4 4 5 5 6 7 6 7 8 8 8 8 8 8 8 9 8 9 9 10 11 11 12 12 12 13 12 12 11 12 14 13 12 12 13 16 12 12 12 15 17 20 21 21 22 21 20
7 8 5 3 2 3 2 2 3 5 5 3 3 2 5 2 3 5 3 2 3 2 2 6 5 3 4 7 7 9 5 1 2 3 4 2 1 5 3 3 3 3 3 2 2 1 3 7 8 5 4 3 5 7 7 7 7 8 9 9 9 9 9 10 10 10 10 9 10 11 12 12 12 13 12 13 13 12 12 13 13 12 12 12 14 15 14 13 15 17 19 18 18 15 18 16 19
7 6 3 3 3 2 1 3 4 3 5 3 5 3 4 2 2 1 1 2 2 2 2 4 4 2 2 5 5 2 2 7 4 4 3 2 3 4 4 3 3 3 3 4 3 3 6 10 8 5 3 4 6 7 8 8 8 9 10 9 9 9 10 11 11 10 11 11 11 12 13 12 13 13 13 14 13 13 13 12 11 11 13 13 15 15 14 15 16 18 20 18 18 18 17 17 18
9 6 4 3 2 2 2 2 4 6 8 5 4 2 6 6 5 6 6 6 6 3 3 2 5 8 6 7 3 2 2 2 1 2 1 2 4 3 3 2 2 2 4 3 2 3 7 10 8 6 4 5 6 7 8 8 9 9 10 11 10 11 12 12 11 11 11 11 12 13 13 13 13 13 13 14 15 13 11 12 10 8 10 12 13 14 16 16 19 20 18 16 17 16 17 19 18
3 5 3 4 4 2 2 4 6 6 4 3 2 5 5 4 4 3 3 3 3 4 3 4 5 5 5 1 3 2 4 3 0 2 3 5 3 3 2 2 1 1 2 2 4 3 8 10 9 6 6 6 7 7 8 8 8 8 8 11 11 11 12 12 11 12 12 12 12 13 14 14 13 13 14 14 12 9 11 14 9 9 11 12 13 14 15 19 20 19 17 14 17 19 20 18 17
2 3 0 3 3 2 3 5 6 6 2 5 2 4 5 3 3 2 3 2 2 5 1 3 2 2 8 10 5 1 4 6 7 6 6 5 3 3 2 1 2 2 3 2 2 4 9 11 10 8 7 8 7 7 6 7 7 8 9 9 10 12 12 12 12 11 11 12 12 12 14 14 14 13 13 14 13 10 12 13 12 11 10 10 10 10 14 19 20 18 17 17 18 20 19 18 17
2 4 0 3 4 3 5 6 7 8 9 3 2 2 2 2 2 2 2 2 3 2 4 4 4 4 2 12 7 2 5 4 6 6 5 5 3 3 2 2 2 1 2 2 2 4 6 9 9 8 7 6 7 6 6 6 6 7 8 8 8 9 10 9 10 11 12 12 12 12 13 13 12 13 15 13 13 11 11 12 10 9 10 8 9 13 16 17 19 18 19 18 19 20 19 19 18
4 2 1 2 3 5 4 5 7 2 1 2 3 6 6 2 3 3 1 2 2 2 3 3 1 5 7 5 5 5 3 3 4 4 3 3 1 3 2 2 1 1 1 3 2 2 3 9 10 9 8 7 6 6 6 5 6 7 7 7 8 8 6 5 6 8 11 12 11 12 13 12 12 13 14 13 14 11 11 12 12 11 12 10 10 13 17 17 17 19 18 18 21 21 21 20 19
4 3 2 3 4 5 4 4 5 6 7 5 3 4 3 1 1 3 2 3 3 3 4 5 3 2 3 3 5 2 4 4 4 4 4 3 1 1 2 3 2 2 2 2 2 3 7 6 12 12 10 8 7 6 5 6 7 7 7 6 7 8 8 8 6 6 7 8 9 11 11 13 13 13 14 14 13 12 11 13 13 13 12 11 12 14 17 17 17 18 20 23 23 22 22 21 22
3 3 4 4 5 4 5 5 7 6 7 4 5 8 3 2 1 3 1 4 3 3 3 6 0 2 3 4 2 2 5 2 4 5 3 1 2 3 2 1 4 3 3 2 2 3 3 4 7 9 11 10 8 6 6 7 7 6 7 6 5 6 7 8 9 8 8 7 7 8 9 9 10 12 13 12 11 12 11 12 14 12 11 12 13 16 16 16 18 20 21 22 23 22 23 21 20
4 4 4 6 6 6 6 7 5 6 8 2 8 3 4 1 3 3 2 2 2 4 2 4 3 1 2 3 3 4 3 2 3 3 2 1 1 3 3 3 2 4 3 4 4 4 3 3 6 7 8 11 10 9 8 7 7 8 6 4 5 5 5 6 9 10 9 9 8 8 8 9 10 10 11 12 11 10 9 10 12 12 14 13 14 14 13 17 18 20 22 24 23 22 21 20 20
5 3 3 6 5 7 6 5 5 5 4 4 5 4 2 2 3 5 2 4 4 4 3 1 1 2 4 3 5 1 2 2 2 1 2 1 1 0 2 3 3 3 4 4 4 4 4 4 4 3 8 7 6 9 11 11 10 10 9 8 6 4 5 6 8 10 10 9 8 8 7 9 9 9 10 11 11 11 11 12 12 13 15 15 19 18 18 19 19 20 23 24 23 21 17 18 19
5 3 4 5 6 6 6 6 4 4 4 6 3 1 2 3 4 5 6 5 6 4 1 3 3 1 1 0 3 2 3 5 4 3 3 3 3 4 4 4 4 4 4 5 5 4 5 4 4 4 4 8 8 7 6 10 14 13 12 9 7 5 7 8 9 9 9 9 9 8 8 9 9 9 11 11 11 12 12 13 14 14 15 14 10 14 18 17 15 19 21 21 22 21 20 18 21
4 3 2 4 7 6 5 5 5 2 1 4 5 0 3 5 4 4 4 3 4 6 2 2 4 3 3 4 4 5 5 6 4 4 3 4 4 4 5 5 4 5 5 5 5 5 4 4 4 5 5 4 4 5 5 5 11 14 12 11 9 9 9 10 11 11 9 8 9 9 9 8 8 8 12 11 12 13 14 12 13 15 17 17 18 21 20 17 18 21 21 20 20 20 19 17 19
2 2 4 5 10 7 5 6 4 4 3 0 10 2 3 4 3 4 1 4 5 6 5 5 5 4 7 7 8 4 4 5 5 4 3 3 4 5 5 4 5 4 5 6 5 5 5 5 5 5 5 5 5 4 4 5 5 12 9 10 11 11 11 12 12 11 10 8 9 10 10 7 6 6 8 8 12 11 12 14 14 15 18 19 18 18 20 21 23 24 21 20 19 19 17 17 17
3 4 4 8 7 9 6 8 3 6 3 4 6 6 7 6 6 5 5 6 5 4 4 5 7 6 7 7 7 5 5 5 5 3 3 3 2 3 3 3 4 6 7 5 7 6 5 6 6 6 4 5 4 5 4 4 4 9 7 6 6 8 9 10 8 8 8 6 10 9 6 6 6 6 7 9 8 9 11 13 14 15 16 17 17 16 19 21 20 19 19 21 18 17 19 11 12
6 4 5 10 7 8 9 3 2 3 3 3 5 5 7 9 7 5 7 7 6 6 6 6 8 8 5 3 3 4 4 4 4 4 4 4 4 4 5 4 4 3 2 7 7 8 7 5 5 6 5 5 5 5 4 4 5 5 6 6 5 6 5 7 6 7 4 5 4 3 3 4 4 5 7 6 6 10 9 12 13 15 16 16 14 15 16 16 18 17 19 18 17 17 11 8 8
9 6 7 10 9 10 12 7 3 2 2 4 3 4 7 8 5 5 8 7 4 7 7 5 6 4 4 5 2 1 1 3 3 4 4 5 5 5 5 5 5 4 4 4 3 7 7 6 6 6 6 6 5 6 5 5 5 4 4 4 4 4 5 6 6 5 5 4 1 2 3 4 5 5 3 3 6 4 5 9 13 14 15 15 16 12 14 15 16 16 15 16 14 8 8 8 8
6 8 10 7 8 9 9 2 1 2 1 3 3 5 9 8 6 5 7 9 7 6 8 7 5 6 7 5 5 5 4 3 4 4 5 6 6 5 5 5 4 3 2 1 1 3 8 7 5 6 6 6 6 5 5 6 4 4 4 4 4 4 5 6 6 6 5 4 1 1 4 4 4 2 2 2 2 3 4 5 7 8 8 9 15 8 8 9 10 8 9 10 7 8 8 8 8
7 11 12 13 11 12 11 11 1 1 3 1 3 5 8 6 7 6 6 9 7 3 4 7 7 8 8 7 5 4 5 5 5 5 6 6 7 6 4 4 4 4 4 4 4 3 4 6 6 5 6 5 6 6 5 5 5 5 4 4 5 6 6 5 4 3 3 4 3 2 3 6 4 1 1 2 0 2 4 5 6 7 7 9 10 9 8 8 9 9 9 8 7 7 8 8 8
10 11 14 12 11 13 10 11 2 1 2 3 4 5 7 7 8 8 9 13 9 7 8 9 8 8 8 6 5 5 5 6 6 6 6 5 5 4 4 3 3 3 2 3 4 4 3 3 5 5 4 5 6 5 4 4 6 5 3 3 4 4 4 3 3 3 4 4 4 3 1 5 5 2 3 3 3 3 4 4 6 6 7 7 8 8 9 8 9 8 8 9 8 8 8 8 8
12 11 10 13 12 13 11 11 6 4 5 4 4 4 8 6 12 4 9 8 9 10 8 8 10 9 7 8 6 7 6 6 6 6 8 7 6 6 4 2 2 3 4 4 3 2 1 3 3 3 4 4 4 4 4 4 4 4 4 3 4 4 3 3 3 3 4 3 4 3 1 3 4 3 3 4 4 4 4 5 5 5 8 7 8 9 9 7 6 7 8 8 9 9 9 8 7
13 14 13 13 12 14 15 11 7 5 6 3 4 7 10 8 10 8 16 9 8 11 10 9 8 8 7 6 7 8 9 8 9 8 3 3 2 1 2 3 2 3 4 4 3 2 2 2 2 3 3 5 4 4 4 3 3 4 4 4 5 5 4 4 3 3 4 4 5 4 3 3 6 4 3 4 4 4 4 4 4 4 5 5 6 5 8 9 7 8 8 8 8 8 8 9 8
11 14 10 10 13 14 11 8 11 10 7 4 5 12 10 11 11 15 19 10 9 11 11 9 7 5 6 7 8 8 8 9 7 3 1 1 2 3 3 2 3 4 4 3 1 2 2 1 1 3 3 2 4 4 4 3 3 3 3 3 3 4 4 4 3 2 5 5 3 5 5 4 4 6 3 3 5 4 5 4 3 3 5 4 4 5 6 6 5 3 3 6 7 8 9 9 10
5 7 8 11 11 11 8 11 12 10 9 8 11 11 11 8 7 10 7 6 2 1 4 3 4 7 8 7 7 7 8 8 2 3 3 1 1 1 2 4 4 4 5 4 2 1 0 1 2 1 1 1 2 2 4 4 3 2 1 2 3 4 4 4 3 2 5 6 3 5 5 5 4 6 4 2 3 5 5 5 5 4 5 5 5 4 1 6 7 7 8 8 8 9 8 6 7
13 13 11 12 14 12 13 15 16 11 11 12 14 15 11 9 8 14 12 7 4 3 4 5 6 7 7 7 8 7 7 3 2 2 2 3 4 4 4 4 4 5 4 5 4 4 4 4 2 1 2 1 1 3 2 3 3 3 3 3 2 3 4 4 3 2 3 4 6 2 4 4 4 4 3 2 1 1 4 6 6 6 5 4 5 6 7 7 8 9 10 8 7 7 8 7 7
13 10 12 13 14 14 15 18 17 14 13 9 3 6 10 9 13 16 17 14 5 6 6 7 7 7 7 7 8 6 4 4 2 0 3 5 4 4 4 4 5 4 5 5 7 6 5 4 3 4 4 0 1 2 2 2 3 3 4 3 1 2 5 5 1 1 1 3 6 4 4 5 4 4 2 2 1 1 2 2 3 3 1 2 6 6 7 7 4 6 7 6 7 7 9 9 8
8 9 9 12 12 14 17 15 16 15 11 10 6 5 5 11 16 14 14 10 7 8 8 6 5 7 6 5 5 4 3 2 1 6 5 4 4 4 4 5 5 5 5 5 6 7 7 5 3 1 2 4 5 2 1 2 1 2 1 1 1 2 3 4 2 1 0 4 6 5 3 3 4 3 3 2 1 0 2 1 1 0 1 1 0 2 6 6 6 8 9 8 7 8 9 9 8
9 9 7 7 9 11 8 9 13 16 5 13 8 8 7 10 10 7 6 14 9 6 6 6 5 6 6 5 5 4 2 3 7 8 6 4 4 5 4 4 5 5 4 5 5 5 6 6 6 3 3 1 3 4 3 3 2 0 2 1 0 2 4 5 6 2 1 2 5 7 3 2 2 3 3 5 3 2 2 3 4 4 2 3 2 2 2 3 4 8 7 9 7 7 7 7 10
7 7 8 6 11 10 13 15 7 11 4 8 7 7 9 12 12 9 4 5 5 4 6 8 8 8 7 5 5 0 3 8 7 8 6 6 4 3 4 5 4 4 4 4 4 5 5 5 5 5 3 1 2 4 6 4 1 1 0 2 2 3 3 5 5 6 6 5 5 5 5 2 1 2 1 2 4 4 4 4 5 3 3 3 4 1 2 2 3 4 4 8 9 6 7 4 3
8 10 8 8 6 6 9 7 10 13 7 8 14 6 4 7 6 1 9 8 10 8 9 9 10 11 9 4 2 3 2 7 6 6 6 5 4 4 4 4 3 4 3 4 5 4 5 5 5 5 7 5 3 2 2 3 3 3 1 1 3 2 1 3 5 5 5 5 5 6 6 7 3 0 0 0 1 3 4 5 4 4 4 5 4 5 7 7 5 3 2 2 4 6 6 6 5
7 7 10 6 10 8 9 3 9 6 9 8 12 9 9 9 7 7 6 6 7 7 9 11 11 10 7 4 4 2 3 7 9 7 5 5 5 4 5 4 3 4 4 5 4 5 5 4 4 4 2 1 3 4 4 3 2 1 2 0 2 2 1 2 3 5 5 5 6 7 9 8 9 5 0 0 1 1 4 5 3 4 5 4 3 3 5 3 4 6 7 6 7 7 8 9 9
7 6 7 8 11 12 11 5 5 9 7 8 11 14 12 11 9 12 10 7 7 9 10 10 12 10 7 4 3 3 4 7 9 7 6 5 5 4 4 2 2 3 4 4 5 4 5 5 6 4 4 4 4 4 3 2 4 4 2 2 3 4 3 3 6 5 5 6 6 7 7 7 7 9 10 6 1 2 4 2 2 3 5 4 4 3 3 3 4 5 8 9 7 8 9 10 9
8 9 8 7 5 5 8 11 5 13 7 9 10 10 11 11 11 11 10 8 7 9 9 10 11 9 6 6 4 4 5 7 8 7 7 6 5 4 3 2 3 4 4 5 5 5 5 4 4 5 4 4 4 2 2 2 1 2 2 2 2 2 5 7 5 5 5 5 5 5 6 6 6 7 7 7 6 5 5 3 1 3 5 5 5 5 5 4 5 4 6 5 6 5 3 6 7
15 14 14 13 12 10 9 12 2 10 5 10 10 12 13 12 11 11 11 9 10 11 12 12 11 8 5 5 4 7 6 10 7 8 7 6 5 4 3 3 3 4 4 5 5 5 6 6 6 6 6 6 5 6 5 4 3 3 2 2 3 5 2 4 5 4 5 5 7 7 6 6 6 5 5 6 6 6 4 4 2 1 1 4 6 8 6 5 1 1 1 0 1 3 4 2 2
16 14 13 12 11 12 8 10 9 1 5 4 6 10 12 11 9 11 11 11 13 12 13 13 12 7 7 5 7 8 9 8 9 8 8 7 4 4 4 3 4 4 5 5 5 6 5 6 6 6 5 5 5 5 4 5 7 4 4 5 3 3 5 5 4 5 4 5 5 6 6 7 6 5 4 4 4 4 5 4 4 1 1 1 2 1 1 1 2 2 1 1 3 1 3 7 6
14 12 10 11 11 11 11 11 11 4 4 7 7 12 12 11 11 11 11 12 12 12 12 11 8 4 5 4 9 8 10 8 9 9 8 7 6 5 4 4 4 4 5 6 5 5 5 5 5 5 5 5 5 4 6 5 4 6 6 4 5 3 4 4 3 2 3 3 3 4 4 4 5 5 5 4 4 3 3 3 3 3 3 1 1 2 3 3 3 2 2 2 1 3 3 4 6
12 10 9 11 7 6 6 7 7 7 5 2 4 10 10 9 12 15 17 17 13 13 11 12 7 6 6 5 8 8 7 8 8 9 8 7 6 6 4 4 4 5 5 5 4 5 5 5 5 6 5 4 4 4 5 4 5 4 4 4 4 3 2 2 2 3 2 2 3 4 4 5 5 4 4 4 3 4 3 1 2 3 3 3 1 1 1 2 2 1 3 3 4 0 3 0 1
12 14 11 9 7 8 9 8 6 6 6 7 8 10 11 9 13 13 12 14 14 13 11 10 7 6 4 6 9 8 8 6 6 9 7 6 6 5 5 4 4 6 5 4 4 5 4 5 6 6 5 6 5 7 6 5 5 4 4 3 3 3 1 2 3 4 2 3 3 4 3 3 3 2 3 3 2 2 2 2 2 2 3 2 2 3 3 4 4 3 3 4 3 4 2 2 3
10 12 12 12 11 13 14 12 11 7 9 4 5 8 8 10 17 14 8 5 8 8 12 13 4 5 6 7 8 7 7 5 6 8 7 7 5 5 6 5 6 5 5 4 4 4 4 5 5 6 5 6 6 7 7 4 3 2 3 3 3 2 2 3 2 3 3 3 2 2 4 5 5 5 4 2 1 0 1 1 2 2 2 2 3 4 5 4 5 5 5 6 5 3 6 3 3
9 9 7 13 17 16 13 12 6 7 8 2 4 9 8 3 3 3 6 3 6 6 8 8 9 7 7 8 8 8 7 7 7 7 8 7 5 6 6 6 6 6 5 4 4 5 5 6 6 7 6 6 7 7 8 6 4 3 2 2 2 3 4 3 4 3 3 2 3 3 3 4 4 5 6 6 7 7 6 6 6 5 4 2 2 2 2 2 2 2 2 4 5 6 6 5 8
11 0 3 7 5 8 8 7 7 8 4 6 3 3 10 10 10 8 8 4 7 6 7 5 9 9 9 9 9 9 9 8 7 7 7 7 6 6 7 7 6 6 5 5 5 5 6 7 6 7 7 7 7 7 7 7 5 5 5 4 4 4 3 3 3 2 0 1 1 1 1 2 3 3 4 4 5 5 6 6 6 6 5 5 3 3 3 3 2 2 2 2 3 1 2 4 3
3 2 2 2 3 3 4 4 5 4 6 11 5 5 5 9 5 14 16 12 12 10 9 9 8 9 10 10 11 9 10 9 8 8 7 7 7 6 7 7 7 6 5 5 5 5 5 5 6 6 7 6 6 7 7 8 8 6 5 4 4 4 3 1 1 1 0 1 1 1 1 1 1 1 3 3 4 4 4 4 4 5 4 4 4 5 5 3 2 1 2 2 2 0 2 1 0
6 3 3 2 1 2 1 3 3 4 6 17 6 6 6 15 6 8 7 12 11 13 11 10 10 10 11 11 11 11 10 9 9 9 8 8 7 7 8 8 7 6 5 6 5 5 6 7 8 9 10 8 8 8 8 7 7 7 6 6 6 5 2 2 1 1 0 1 1 1 1 2 2 3 4 3 4 4 4 4 4 4 4 4 4 4 4 4 4 2 1 1 1 2 0 1 2
5 2 4 3 1 2 1 4 3 4 12 18 5 10 8 13 4 7 7 11 13 10 8 8 8 7 7 11 13 12 10 9 8 8 8 9 8 9 8 9 8 7 7 7 7 7 8 9 8 10 10 9 10 11 11 12 12 12 11 12 11 9 6 4 5 4 0 2 1 1 1 2 3 3 3 3 3 3 3 3 2 1 1 1 2 2 2 1 1 1 1 1 1 1 1 1 1
5 2 2 2 5 3 3 4 5 7 17 4 10 10 13 13 1 9 9 9 11 9 10 10 9 9 8 9 12 12 10 9 8 8 8 8 9 9 8 9 8 8 8 9 8 8 8 8 9 9 10 11 10 10 11 11 11 11 12 12 12 12 12 10 11 11 12 12 10 7 3 2 4 5 4 6 6 5 5 4 3 3 3 1 1 0 1 1 1 0 0 0 2 2 2 2 2
4 4 3 4 3 3 4 5 8 13 14 3 13 18 13 21 13 3 5 6 11 6 7 10 8 7 8 12 13 10 9 9 9 9 9 8 7 7 7 7 7 7 8 9 9 8 7 8 9 9 10 10 10 10 10 10 11 11 10 11 11 10 10 11 9 10 9 9 9 9 10 9 10 10 10 9 9 6 5 5 5 4 4 4 3 3 3 3 2 1 0 0 0 1 2 2 3
7 8 6 7 7 6 9 7 4 8 9 12 14 10 12 7 8 15 8 9 8 4 5 6 7 6 13 12 10 11 10 9 9 9 9 7 7 6 7 7 7 7 8 8 8 7 7 8 8 9 9 9 9 9 9 9 10 10 9 9 9 9 10 9 9 8 9 8 8 8 8 8 7 8 8 8 8 9 9 9 8 7 6 5 4 4 3 2 1 2 2 2 2 2 2 3 3
9 6 11 9 7 4 8 5 8 9 7 2 3 5 4 6 3 14 14 11 9 4 5 6 13 17 13 12 12 12 10 9 9 10 8 7 8 7 7 7 7 7 7 7 6 6 6 7 8 8 8 8 8 8 7 8 8 9 9 8 8 8 8 8 8 7 8 9 8 8 8 8 7 7 7 7 8 9 9 9 10 9 9 8 6 4 4 3 3 2 3 3 1 1 2 3 3
5 4 1 5 14 2 8 6 6 4 3 2 3 5 0 3 1 0 4 11 9 6 7 9 14 13 13 11 11 9 9 9 9 9 9 8 8 7 7 6 6 5 6 5 5 6 7 6 6 7 7 6 7 7 7 7 7 7 8 9 8 8 7 6 7 7 7 7 7 7 7 8 7 7 7 7 8 8 8 8 8 8 8 8 8 8 7 6 6 4 3 4 4 2 2 3 3
6 7 10 15 2 6 9 11 13 16 10 15 3 3 5 7 3 2 4 11 12 7 7 7 10 13 12 11 9 9 9 9 8 9 8 8 6 7 7 6 6 5 4 5 5 6 6 5 5 6 6 6 6 7 6 6 6 7 8 8 7 8 8 8 7 7 7 6 7 6 6 6 6 7 7 7 8 9 8 8 8 8 7 7 6 6 6 6 6 6 4 4 5 3 2 2 2
7 8 11 3 3 2 8 8 3 8 12 11 7 14 7 8 8 9 8 10 9 8 8 7 11 12 12 9 9 10 10 10 10 10 8 8 7 7 6 6 5 4 4 4 5 4 5 5 6 6 6 7 6 6 6 6 6 6 7 7 7 7 6 6 6 6 6 6 7 6 6 7 8 7 6 6 7 8 8 8 8 8 8 8 9 7 7 5 4 4 5 5 4 3 3 3 3
11 6 2 8 5 11 9 4 11 10 11 8 7 6 5 6 4 3 7 8 8 9 9 9 12 10 11 10 11 10 9 9 8 8 8 7 7 5 5 4 4 4 4 4 4 5 5 5 5 5 6 6 6 5 5 6 6 5 5 6 7 7 6 6 5 5 6 6 7 6 7 6 6 7 6 7 7 7 7 7 8 7 7 8 8 8 8 8 8 5 5 5 5 4 2 2 3
4 5 7 4 3 4 9 10 3 1 12 9 9 8 11 6 4 13 10 11 10 8 7 12 10 10 8 9 9 9 8 8 8 7 6 6 5 5 4 4 4 4 4 4 5 5 5 5 5 5 5 5 5 6 5 6 6 6 6 6 6 6 6 6 6 6 6 7 7 7 7 7 7 6 6 7 7 7 7 7 7 7 8 7 7 7 8 8 7 7 6 6 7 8 6 5 5
6 4 9 4 4 1 2 2 9 8 7 9 7 5 3 3 6 12 9 10 10 11 13 10 10 9 8 7 8 8 8 7 7 6 6 5 4 4 4 3 3 3 4 4 5 5 5 5 5 6 6 5 6 6 6 6 5 6 6 7 6 6 7 5 7 7 6 7 6 6 6 5 5 6 6 6 6 6 6 6 6 7 7 6 7 7 7 6 6 6 7 6 8 8 8 7 6
13 14 15 15 11 8 9 11 3 5 7 4 4 7 1 1 1 5 12 5 9 15 15 11 10 9 8 7 7 7 7 6 6 6 5 4 5 4 4 4 3 4 4 5 5 5 5 5 5 5 5 5 5 6 6 5 5 5 4 5 6 6 5 5 6 7 7 7 6 6 6 6 5 6 6 6 6 5 5 5 5 6 6 6 6 7 7 5 6 7 6 6 7 7 7 7 7
Wind_Direction
297 284 266 294 287 269 284 204 268 174 233 239 245 244 76 11 37 9 328 280 54 40 47 21 20 251 344 339 309 307 300 294 304 278 286 164 90 95 135 145 137 164 175 150 128 144 139 143 140 147 329 309 288 260 260 272 290 296 294 293 290 282 282 279 276 278 280 282 282 279 268 259 250 247 250 250 249 254 242 238 244 243 241 232 240 252 259 269 249 225 176 160 162 155 143 164 163
302 315 299 258 258 286 223 171 274 255 204 253 261 63 178 80 254 61 33 30 47 62 360 344 277 286 256 274 271 295 261 227 241 285 113 94 122 136 132 168 175 144 132 121 148 160 155 159 156 170 201 260 253 269 257 274 286 291 294 291 288 282 278 274 269 267 267 271 271 272 271 268 259 252 250 248 249 245 246 245 243 242 240 244 246 251 240 226 254 210 183 177 176 171 160 169 158
303 301 293 232 244 244 300 280 258 302 312 304 40 23 141 24 29 60 48 34 7 22 13 288 274 258 220 208 253 224 299 168 90 212 90 159 148 136 138 131 147 131 113 107 180 142 109 139 150 156 161 227 242 280 278 277 285 286 285 288 289 281 277 275 270 266 263 264 266 265 266 264 262 258 248 246 244 245 244 248 248 244 236 240 238 236 228 218 234 198 182 179 185 178 164 161 150
282 275 280 307 281 188 264 193 247 270 295 306 301 64 52 33 19 49 65 35 3 297 302 314 317 53 282 277 291 341 281 14 37 2 123 151 43 137 137 145 162 130 125 140 180 114 89 124 126 141 155 206 248 272 290 277 278 280 282 284 281 279 278 276 273 270 269 265 261 260 256 257 259 258 253 249 245 244 247 250 253 247 235 234 233 231 221 213 209 200 191 184 181 173 156 154 148
274 262 251 280 285 241 274 263 280 287 271 300 307 31 89 52 360 104 172 63 281 314 308 328 322 290 110 267 303 278 1 117 23 43 95 69 80 117 133 159 172 143 151 170 161 152 127 128 121 111 147 205 239 264 274 274 273 274 278 282 278 275 274 273 273 271 270 267 261 258 255 254 256 258 254 251 244 241 245 249 253 252 246 240 238 231 214 212 208 198 190 182 176 171 157 153 145
249 258 207 258 255 25 255 273 251 232 235 248 246 347 5 31 14 18 347 320 318 311 45 312 315 332 318 295 309 280 39 319 250 44 48 146 130 137 146 168 184 160 154 159 147 155 117 130 134 141 188 209 230 246 264 267 267 270 272 277 279 271 269 271 269 269 266 266 265 258 253 250 253 255 254 251 246 248 268 273 257 249 246 244 241 233 211 201 206 192 189 186 173 162 156 154 152
319 305 213 226 243 258 264 270 273 292 304 34 324 345 6 11 13 356 304 322 317 300 74 318 342 312 253 250 248 226 62 77 148 63 47 134 126 142 169 178 149 177 153 156 140 166 126 132 138 169 195 209 227 245 251 259 275 284 277 275 270 264 264 262 262 263 263 264 264 260 254 251 249 252 252 256 258 261 264 269 249 246 246 248 246 237 203 191 194 182 184 176 170 162 160 156 158
253 279 25 264 300 168 229 244 258 259 268 103 349 316 357 16 3 321 315 328 335 336 134 216 139 6 272 272 272 323 72 57 106 114 110 128 141 149 171 234 179 184 164 161 150 110 140 147 150 169 192 205 224 248 270 271 285 305 311 317 281 260 261 260 263 264 262 260 260 259 255 250 249 246 250 251 246 243 259 266 257 258 255 250 241 216 185 187 181 177 178 169 169 163 158 157 161
245 255 131 289 242 237 249 251 264 244 253 267 23 28 161 261 292 241 252 275 304 263 312 321 38 311 331 326 308 308 83 88 97 111 122 122 165 151 175 210 203 193 142 155 176 144 165 154 152 166 177 199 216 240 256 262 285 294 310 318 322 279 267 270 271 268 264 264 265 267 261 249 243 249 249 249 249 233 240 245 252 257 251 246 210 189 178 177 173 175 176 172 173 166 160 165 164
258 218 269 283 328 276 275 268 259 47 67 40 322 313 308 325 284 233 233 240 247 313 277 308 6 270 288 274 296 287 138 127 126 113 125 131 122 146 158 224 273 246 179 181 200 198 111 153 160 167 175 192 213 228 247 259 277 291 294 314 321 325 311 295 282 278 274 268 268 270 264 251 247 251 258 250 243 234 231 239 242 242 240 237 208 182 173 177 172 174 171 171 175 169 165 164 162
280 177 282 277 242 252 249 289 310 327 343 347 316 213 116 235 309 321 287 257 183 229 272 74 252 280 347 316 283 56 99 137 160 108 121 139 144 188 221 171 226 213 230 224 210 185 140 175 174 176 175 178 197 214 227 231 246 274 297 308 326 320 326 326 318 305 296 290 282 276 272 260 256 253 248 250 240 241 238 241 236 236 229 224 207 188 179 177 176 172 173 175 175 173 174 174 168
273 238 175 253 268 278 291 297 303 301 307 312 275 83 74 99 315 261 258 285 18 333 295 143 349 28 312 287 279 129 132 90 77 107 92 103 191 182 246 212 184 207 223 233 230 240 213 159 177 185 180 181 187 196 216 231 238 252 267 292 309 324 324 322 320 307 297 292 286 278 274 268 258 258 257 247 236 245 241 223 226 226 232 224 213 195 187 183 175 176 177 180 174 172 178 170 169
263 313 276 260 268 272 288 288 284 316 294 301 89 71 71 316 230 281 319 344 277 260 284 47 26 97 282 284 276 120 85 89 61 93 122 211 226 147 185 259 195 195 208 218 225 225 221 212 190 178 189 183 182 192 207 224 227 233 243 269 292 317 323 316 309 305 296 288 283 279 272 266 261 257 255 250 235 228 216 222 223 215 223 224 211 212 200 189 186 179 180 182 179 180 178 171 166
246 257 287 274 286 282 280 286 295 265 266 119 84 116 58 345 323 310 311 270 272 263 176 249 236 63 265 257 272 88 126 148 125 128 156 193 308 207 223 226 222 205 219 216 223 228 227 218 231 204 169 180 189 194 202 208 215 219 229 240 253 273 288 298 294 290 288 280 273 266 264 263 257 254 253 249 236 224 216 223 225 229 223 221 218 208 203 198 192 187 183 178 177 181 176 169 163
258 263 264 272 279 283 264 258 256 288 286 34 49 98 44 228 256 258 258 274 254 46 183 205 230 190 269 96 308 11 166 176 167 178 189 175 209 217 211 213 232 229 215 214 225 224 219 219 224 237 180 181 193 194 197 209 210 212 213 211 209 228 267 277 281 280 277 277 270 267 262 259 259 253 248 246 240 226 223 222 224 228 222 225 224 251 224 205 199 188 186 182 180 179 175 170 157
249 283 268 267 262 265 271 279 274 218 275 90 129 215 252 260 255 303 286 290 314 304 240 269 144 213 262 283 275 280 162 160 171 187 192 201 210 219 210 209 223 223 212 214 224 218 215 219 217 213 223 214 195 200 202 195 203 205 203 207 212 216 234 255 261 263 263 262 261 259 258 261 259 254 246 243 236 228 222 218 213 211 215 217 217 214 221 212 200 192 184 186 180 175 173 163 156
211 256 257 238 259 246 246 245 233 254 56 127 140 211 296 313 294 258 68 147 246 254 267 253 256 192 226 218 229 245 119 133 164 185 200 229 207 217 199 213 223 213 203 216 212 210 210 215 214 214 218 210 198 206 204 208 196 197 197 206 209 213 221 233 243 247 253 252 252 254 252 250 246 245 238 228 226 226 221 212 209 207 210 216 218 224 215 206 190 187 184 177 176 168 167 163 154
220 220 235 248 247 254 265 271 347 13 338 355 354 5 318 303 317 313 343 282 264 274 262 283 277 243 221 229 201 226 140 171 179 184 239 267 258 275 285 257 183 205 194 216 204 206 202 206 213 216 218 210 198 203 204 196 198 179 200 209 210 219 227 230 229 231 230 233 235 238 230 227 228 233 241 223 214 214 217 211 208 206 209 211 214 219 216 197 188 183 180 177 176 167 160 153 158
216 229 230 247 237 249 269 349 313 328 336 338 321 319 303 292 319 307 296 292 292 292 286 286 279 271 246 194 191 237 209 202 196 209 238 257 261 263 258 247 249 269 233 186 196 196 195 199 200 213 215 208 199 204 202 201 207 194 207 216 225 223 217 202 213 217 229 230 236 221 240 250 244 241 235 227 195 191 204 206 208 207 207 207 198 195 188 186 184 183 184 175 172 161 147 149 157
218 237 236 242 247 269 277 294 12 5 337 296 308 316 313 294 290 291 274 290 293 279 288 282 263 283 353 356 360 248 254 252 231 216 241 247 248 249 244 237 240 239 222 217 202 172 183 192 203 200 204 212 198 197 203 204 207 211 215 217 219 207 218 214 214 224 221 221 227 302 267 264 261 266 24 139 156 159 201 204 206 207 204 194 186 197 198 184 181 183 181 168 165 150 156 155 156
199 219 235 248 260 274 278 302 294 147 243 283 292 308 292 280 280 300 289 288 262 252 248 254 300 322 319 319 299 293 281 260 251 238 231 239 243 236 231 234 243 233 226 275 217 183 176 191 197 199 198 199 199 196 199 202 207 210 209 211 210 211 232 217 209 208 214 200 165 232 287 268 278 322 50 111 172 167 173 189 207 206 199 198 190 188 184 182 175 171 179 169 166 159 158 161 158
260 233 238 248 262 269 278 294 313 108 94 250 264 266 267 300 285 262 265 260 258 267 293 302 306 301 297 295 286 272 262 258 242 239 240 237 236 235 236 256 240 226 215 196 227 227 206 188 188 198 193 193 192 196 200 196 196 203 210 215 212 216 219 218 229 241 218 167 163 181 277 281 263 266 104 116 146 162 174 187 195 198 193 188 185 185 183 174 177 175 174 173 173 166 163 165 167
240 244 255 261 270 276 284 281 39 46 166 226 253 255 291 285 281 269 262 251 264 266 273 280 281 282 286 288 280 264 258 248 241 244 243 249 253 253 249 233 247 271 261 225 197 211 235 227 199 195 194 188 196 194 199 187 194 200 214 218 226 242 226 223 215 245 265 174 167 175 203 281 259 205 171 150 161 156 183 196 191 187 186 180 180 176 176 177 175 175 174 176 170 168 166 170 171
235 257 250 243 244 256 262 263 258 190 182 232 253 289 268 277 277 238 245 244 256 264 260 266 272 270 264 264 262 262 255 250 254 253 243 237 228 231 230 263 312 334 334 310 299 284 221 228 245 201 196 190 184 194 205 201 186 185 206 222 251 257 236 236 222 228 255 204 164 159 196 273 270 208 191 167 167 163 180 186 189 188 182 180 180 175 173 171 171 169 173 169 169 171 170 173 175
244 242 243 258 276 278 280 274 259 274 274 263 240 256 250 247 256 284 262 254 250 255 259 260 266 269 265 255 255 250 254 254 247 242 239 236 243 190 169 165 221 235 253 260 256 259 259 258 224 248 225 191 184 184 205 197 205 191 192 209 230 227 228 234 229 228 251 241 169 166 158 269 296 260 199 188 174 175 164 178 184 176 180 175 174 174 172 176 177 177 172 166 171 173 174 173 177
240 257 269 264 261 265 265 266 273 267 263 203 239 246 250 249 256 261 266 263 243 248 256 254 255 267 261 256 253 251 253 257 259 250 275 49 34 3 306 212 215 223 222 233 238 224 234 264 258 217 237 242 191 176 182 187 216 220 202 227 251 249 225 218 213 258 269 259 192 159 166 190 256 299 272 193 181 180 166 180 182 169 171 180 190 185 174 163 152 148 149 159 168 179 180 185 181
280 256 264 274 272 274 282 277 264 261 259 244 235 243 243 237 227 266 256 250 260 195 232 226 243 248 251 251 247 245 253 258 290 17 2 23 42 38 26 15 12 357 2 338 336 346 328 210 226 301 283 254 290 188 180 183 182 202 199 237 266 285 276 220 174 222 273 289 244 160 165 182 216 252 297 327 209 184 174 178 193 176 173 178 184 207 219 183 162 165 186 182 180 188 187 175 183
268 276 298 289 277 270 266 265 264 259 258 248 248 258 265 258 242 246 266 247 178 181 212 236 238 251 257 255 255 257 256 257 62 37 344 27 41 32 32 28 1 4 358 357 354 2 350 335 334 196 202 282 254 248 231 178 174 189 199 201 245 282 292 269 178 187 270 288 288 165 167 176 198 234 233 285 37 229 191 179 188 180 185 178 199 207 195 194 187 182 182 178 172 173 177 177 191
262 267 270 272 273 269 255 252 249 240 245 243 243 270 264 247 232 234 236 249 228 194 223 229 235 246 250 251 252 245 236 89 56 85 65 59 65 52 35 40 21 360 5 358 359 355 348 350 17 360 358 337 257 263 249 223 175 190 176 175 221 249 271 282 199 183 245 277 281 246 178 174 181 202 230 240 230 105 66 140 165 160 149 177 197 209 210 213 192 162 181 173 166 160 172 182 184
299 275 264 276 272 261 254 250 247 239 232 211 125 254 227 242 231 226 225 225 215 222 225 227 237 244 248 257 258 254 109 105 170 87 67 72 72 54 46 26 28 21 356 360 4 360 342 329 332 87 44 352 338 314 282 260 210 178 135 129 191 251 284 302 265 182 293 296 292 285 232 162 158 181 184 203 159 236 134 129 232 245 72 38 15 277 221 197 198 186 185 170 179 169 174 176 174
259 265 260 261 281 262 264 246 235 229 155 137 167 244 253 269 282 292 285 180 197 206 239 250 263 279 283 266 253 230 146 172 106 100 99 96 67 62 45 33 24 15 2 8 3 349 342 342 355 356 95 7 330 320 312 300 319 64 134 123 275 23 353 335 333 323 207 249 296 307 287 169 163 187 193 166 182 206 245 207 196 231 105 70 27 3 323 277 210 196 174 182 177 173 168 179 185
256 261 239 235 238 270 268 255 203 202 126 186 146 247 251 262 269 267 87 128 152 213 247 264 273 273 269 272 268 184 71 93 92 104 110 97 75 77 62 47 26 11 16 358 353 351 349 351 359 345 2 60 9 341 337 334 314 307 50 119 85 54 17 355 358 351 351 348 324 320 330 311 213 182 195 150 155 187 207 222 221 199 181 170 166 184 20 309 297 229 201 181 169 168 157 162 123
237 239 264 255 248 263 276 208 172 208 152 193 181 226 225 232 236 180 147 170 180 206 235 247 249 258 261 260 261 93 124 107 119 117 113 93 93 75 64 51 25 23 15 6 4 352 357 1 10 13 13 10 352 301 256 285 314 328 262 135 110 97 40 19 0 358 352 350 338 331 338 340 321 260 117 126 152 184 209 209 206 188 177 187 197 195 192 196 195 281 291 253 187 176 175 169 164
235 221 246 240 256 264 260 258 186 213 144 195 201 233 246 262 285 290 289 302 299 283 279 280 282 280 274 257 241 144 167 141 134 119 104 104 89 68 65 44 39 15 26 24 8 5 357 10 6 26 30 33 334 327 349 351 336 254 309 113 130 116 91 52 26 10 349 355 7 3 359 0 344 317 326 105 11 280 216 193 169 159 157 169 189 187 219 230 235 194 199 213 204 191 187 177 185
226 235 240 236 240 241 257 263 176 220 192 205 204 228 242 251 259 267 265 255 254 257 259 265 269 271 271 261 226 154 148 141 120 114 113 104 87 73 70 60 52 25 38 24 19 14 10 6 6 7 6 29 3 347 13 21 345 343 5 16 53 72 67 51 24 19 10 10 16 1 356 356 358 357 355 5 19 349 3 17 112 144 148 164 173 194 228 249 235 229 215 211 213 210 193 192 183
253 250 245 251 239 241 237 232 221 175 195 223 232 235 235 237 243 249 256 254 254 252 248 249 250 249 243 241 171 159 149 111 111 114 116 99 93 81 78 69 38 61 39 28 17 18 19 10 8 5 9 29 352 5 3 5 13 337 353 11 24 47 53 43 31 31 12 4 4 8 1 353 9 359 359 360 7 6 357 342 300 166 169 168 177 189 211 214 232 264 276 268 241 231 218 189 153
273 282 285 284 287 274 281 297 275 187 247 232 230 232 245 254 260 266 269 268 263 260 258 255 255 251 250 238 161 143 139 122 129 122 110 118 109 99 87 58 40 55 45 37 19 14 21 11 19 7 6 10 10 3 9 7 4 355 8 17 29 56 76 57 40 32 25 20 353 353 5 7 2 14 8 5 2 355 346 350 356 330 272 194 184 201 190 182 162 157 259 101 290 303 308 328 150
256 265 267 272 274 277 273 270 289 166 167 249 239 257 250 251 256 264 271 268 259 253 255 255 253 249 255 198 143 134 112 125 124 122 131 107 101 102 85 77 47 50 43 39 25 13 17 19 21 7 1 3 2 24 358 17 30 25 360 20 32 25 37 42 34 28 29 17 18 14 357 352 360 9 12 15 359 358 340 340 347 349 31 336 326 351 125 139 133 161 122 51 42 49 350 353 319
251 251 257 265 260 277 275 271 270 191 233 257 266 265 263 257 253 253 253 256 255 251 248 256 259 267 282 160 134 139 129 146 146 136 124 118 113 98 89 64 65 56 53 38 18 16 22 16 17 7 346 12 357 12 26 51 23 34 38 17 18 15 78 67 74 56 36 40 34 11 5 4 0 356 354 3 6 3 3 2 349 355 357 38 96 53 38 24 20 48 58 122 77 63 105 29 356
260 259 249 249 260 253 270 246 255 238 171 245 232 269 267 272 266 260 250 243 246 246 244 247 246 249 235 168 144 144 143 147 141 136 125 117 110 104 83 65 61 67 49 32 17 19 20 14 13 1 354 4 0 13 21 68 66 61 68 70 46 57 35 38 68 57 36 23 27 17 21 2 1 3 2 4 4 7 14 30 23 27 17 8 32 100 75 65 45 52 91 88 113 63 33 353 72
247 252 254 261 258 242 244 265 271 261 208 230 265 270 262 240 252 245 242 239 241 249 248 246 243 224 177 133 130 149 140 131 131 118 114 110 97 86 88 71 53 61 52 27 25 30 8 17 8 357 354 359 13 11 17 26 36 21 18 9 34 16 31 37 25 341 4 22 15 19 4 360 359 11 3 5 21 14 20 44 72 80 77 42 54 82 91 104 95 83 83 99 102 145 141 66 349
248 249 258 261 257 262 264 267 277 276 272 205 239 289 263 222 227 242 230 212 222 224 230 242 187 144 118 120 126 106 110 120 118 111 111 103 104 105 79 65 60 54 44 19 29 31 16 21 9 4 3 11 7 15 0 23 41 26 351 8 357 355 324 325 341 355 14 6 8 37 16 10 357 354 356 358 9 68 115 134 145 144 143 146 144 145 141 126 137 143 168 155 135 129 137 144 213
248 242 234 253 253 253 258 270 276 269 264 294 211 233 282 2 317 320 324 193 203 216 218 212 160 178 149 148 139 134 130 104 92 106 113 112 113 94 82 68 59 53 38 19 27 24 23 27 13 12 11 9 21 11 350 355 5 6 356 347 358 9 1 358 37 39 36 21 45 32 25 20 23 18 6 9 4 2 3 6 5 5 8 11 9 69 110 148 159 141 125 125 155 153 148 184 196
251 66 319 290 282 245 246 262 252 271 311 277 228 235 284 262 246 282 262 220 198 205 213 181 172 178 174 159 151 148 148 135 134 121 107 100 85 87 86 74 62 56 32 29 23 22 26 27 19 20 15 19 18 7 347 354 2 5 4 9 37 16 29 24 14 349 8 135 84 99 63 63 47 46 43 26 20 18 16 14 14 15 21 13 22 17 38 39 68 57 102 97 82 143 212 210 218
239 34 317 332 332 294 295 272 278 280 312 266 215 211 246 254 236 225 227 222 198 210 211 192 189 183 162 166 152 148 126 128 124 117 109 99 96 84 83 76 69 58 45 38 24 29 30 24 26 33 23 22 17 10 12 7 6 5 4 18 14 358 68 44 323 265 109 85 67 79 93 106 111 102 79 60 46 43 37 29 25 30 23 15 17 13 18 26 43 80 78 69 128 140 182 231 340
224 138 80 57 36 344 324 301 297 285 264 261 209 193 237 270 231 260 203 219 203 208 206 190 188 179 165 164 142 117 101 93 94 101 102 98 95 88 79 80 71 58 49 40 30 34 33 23 30 36 24 16 13 11 13 13 11 9 10 2 2 335 40 5 304 274 247 192 145 192 182 170 133 88 62 59 50 49 52 49 46 41 37 24 27 20 15 16 11 21 34 115 123 191 315 182 221
74 165 245 230 221 224 265 227 233 280 252 253 178 212 205 281 191 209 175 197 199 197 194 182 179 181 173 158 127 121 117 113 107 102 98 92 83 77 71 66 58 50 44 38 31 32 32 28 27 37 27 17 16 18 19 23 20 18 14 10 7 5 2 10 347 332 296 316 171 178 113 123 117 107 106 79 71 56 45 63 59 80 92 75 52 36 14 13 359 10 20 40 21 205 240 254 262
142 193 144 351 274 207 242 242 180 232 256 222 183 201 206 244 167 206 199 171 193 192 179 174 178 179 179 136 117 113 113 115 111 102 96 88 74 64 61 58 51 45 39 37 31 26 35 30 29 36 30 21 18 21 23 28 26 21 16 16 15 9 8 13 17 20 11 9 9 17 10 36 54 67 57 60 42 21 14 23 21 1 1 22 46 58 180 184 202 222 310 254 265 267 278 267 263
162 140 126 206 249 143 245 174 214 218 249 161 202 202 217 231 231 337 153 169 194 202 173 174 168 166 125 100 103 103 106 96 91 89 79 68 67 63 59 56 54 43 40 37 31 25 31 34 30 36 31 22 20 22 25 28 32 23 18 16 14 12 21 28 26 24 20 20 20 22 23 22 18 22 17 22 8 3 360 10 10 3 357 2 24 23 15 29 13 21 341 344 243 235 223 221 231
165 177 171 184 223 228 247 213 231 253 245 231 248 198 229 241 231 224 209 182 204 189 139 140 148 132 103 103 98 94 87 91 90 84 78 72 68 70 62 59 53 45 42 38 32 27 30 33 35 38 30 26 21 25 24 29 35 29 22 22 19 17 20 27 27 24 17 20 20 28 30 22 22 23 12 14 360 4 7 5 2 1 358 10 23 9 357 340 330 321 283 219 225 230 212 218 231
190 189 180 201 200 186 232 202 229 248 273 323 206 147 241 156 256 184 210 168 184 168 125 94 81 94 106 99 96 92 95 84 86 81 81 78 71 65 63 59 51 50 46 40 35 34 30 34 37 38 31 27 28 27 26 31 35 31 27 25 27 26 24 27 30 25 21 21 19 27 26 21 22 14 16 3 6 10 7 7 8 7 3 2 1 1 356 357 348 3 336 304 269 225 240 217 229
202 159 168 249 225 198 261 266 293 286 349 283 249 222 257 177 268 90 185 151 176 151 129 112 103 102 100 96 94 99 99 101 93 91 83 75 69 63 63 58 53 53 49 43 42 40 37 35 38 43 37 29 30 30 30 31 33 33 31 29 28 29 29 30 31 30 29 26 25 27 25 24 15 13 9 9 7 10 6 6 7 9 9 8 5 2 357 355 348 343 338 333 328 346 354 325 287
168 140 213 222 177 228 260 264 254 280 286 253 192 263 267 317 249 204 189 163 170 147 136 124 119 107 102 105 108 101 93 87 85 82 83 78 72 72 65 59 54 50 48 50 49 47 47 40 38 41 36 32 33 32 34 28 31 37 31 31 28 29 30 30 29 27 31 26 32 27 30 24 24 22 12 10 10 6 10 8 8 5 8 3 3 357 353 351 355 346 342 338 328 326 329 306 307
118 199 226 163 229 185 220 256 244 229 238 257 166 233 229 191 263 183 180 163 167 150 130 126 94 95 90 91 91 88 88 88 90 88 84 79 78 72 68 68 67 61 56 55 55 51 55 46 45 41 37 34 26 32 31 29 26 30 33 29 27 28 30 27 25 30 31 35 28 27 23 27 24 16 14 12 12 8 9 9 11 10 10 9 9 4 356 348 338 338 335 330 319 325 316 307 302
212 177 4 183 190 207 208 241 245 230 241 263 207 233 233 207 231 120 178 179 159 137 133 113 99 97 102 97 96 101 101 97 90 85 79 76 70 68 74 80 76 77 71 66 60 62 55 54 43 51 48 37 34 29 35 33 33 29 29 28 25 23 23 23 24 27 36 39 35 27 28 28 22 16 13 14 12 12 11 8 11 10 10 12 11 9 3 1 356 349 339 324 325 316 318 317 309
31 23 284 239 317 274 200 205 274 210 250 253 249 213 249 191 210 174 181 181 135 140 101 99 104 98 101 104 104 100 94 92 92 87 87 86 85 86 84 77 75 70 63 72 66 58 59 54 53 49 42 45 35 33 31 37 32 32 29 30 26 25 21 26 22 30 34 36 32 28 24 25 21 14 16 14 16 13 10 11 9 10 10 9 11 13 10 5 7 12 9 8 359 359 355 358 349
209 215 232 242 233 284 59 269 215 219 245 243 275 260 256 270 161 171 166 162 150 130 112 109 101 94 84 83 95 94 93 95 96 99 99 95 94 100 95 100 92 86 70 64 63 56 51 50 50 44 47 37 33 33 26 33 32 25 28 26 23 21 20 21 27 29 32 31 29 28 23 18 18 21 17 15 19 14 11 9 12 12 10 8 8 15 13 6 9 7 9 11 9 4 1 356 2
191 192 210 206 200 207 215 243 185 223 221 233 224 250 134 360 29 148 147 153 104 113 117 110 105 102 96 86 81 101 98 88 90 96 100 114 118 102 94 81 78 71 70 61 55 56 52 49 49 48 40 40 34 24 31 27 28 25 26 26 23 17 16 18 28 27 27 26 23 20 18 7 19 15 18 13 12 12 11 13 16 16 14 13 13 13 10 8 9 8 8 16 12 9 7 1 4